Regional Weather Roundup
Issued by NWS

Home | Current Version | Previous Version | Text Only | Print | Product List | Glossary Off
Versions: 1 2 3 4 5 6 7 8 9 10 11 12 13 14 15 16 17 18 19 20 21 22 23 24 25 26 27 28 29 30 31 32 33 34 35 36 37 38 39 40 41 42 43 44 45 46 47 48 49 50

000
ASUS45 KBOI 060010
RWRID

IDAHO REGIONAL WEATHER ROUNDUP
NATIONAL WEATHER SERVICE BOISE ID
500 PM MST FRI FEB 05 2016

NOTE: "FAIR" INDICATES FEW OR NO CLOUDS BELOW 12000 FEET
WITH NO SIGNIFICANT WEATHER AND/OR OBSTRUCTIONS TO VISIBILITY

IDZ012-014-060100-
SOUTHWEST IDAHO


CITY           SKY/WX    TMP DP  RH WIND       PRES   REMARKS
BOISE          CLEAR     45  35  68 S9        30.46F
CALDWELL       FOG       35  33  92 W3        30.47F VSB 1/4
MOUNTAIN HOME  CLEAR     40  40 100 E15       30.47F WCI  31
$$

IDZ016-017-060100-
SOUTHCENTRAL IDAHO


CITY           SKY/WX    TMP DP  RH WIND       PRES   REMARKS
BURLEY         CLEAR     33  26  75 NE7       30.48R WCI  27
JEROME         CLOUDY    27  25  92 NE17      30.49S FOG     WCI  14
TWIN FALLS     CLEAR     32  28  85 NE6       30.48S WCI  26
$$

IDZ019>023-060100-
SOUTHEAST IDAHO


CITY           SKY/WX    TMP DP  RH WIND       PRES   REMARKS
IDAHO FALLS    CLOUDY    19  16  88 N6        30.50F FOG     WCI  11
POCATELLO      CLOUDY    24  21  88 NE5       30.51F WCI  18
REXBURG        CLOUDY    22  19  89 CALM      30.49F FOG
$$

IDZ006-010-011-018-031-032-060100-
CENTRAL IDAHO MOUNTAINS


CITY           SKY/WX    TMP DP  RH WIND       PRES   REMARKS
MCCALL         PTCLDY    30  26  85 CALM      30.39F
HAILEY         CLEAR     19  18  93 SE7       30.46S WCI  10
STANLEY          N/A     32  20  61 CALM      30.40R
SALMON         CLOUDY    25  14  63 SE3       30.41F
CHALLIS        CLEAR     24  16  71 S3        30.40F
$$

IDZ002-004-006-007-026-060100-
NORTHERN IDAHO


CITY           SKY/WX    TMP DP  RH WIND       PRES   REMARKS
LEWISTON       CLOUDY    50  34  54 SE18G29   30.28S
LOWELL           N/A     39  36  89 N5        30.36F
COEUR D`ALENE  CLOUDY    45  36  70 S6        30.22F
MULLAN PASS    CLOUDY    30  27  88 S5        30.22F WCI  25
$$



USA.gov is the U.S. government's official web portal to all federal, state and local government web resources and services.